Weather History for Midland Airpark, TX

Change the Weather History Date:

Sunday, July 21, 2013

  Actual Average (KMAF) Record (KMAF)
Temperature  
Mean Temperature 80 °F 82 °F  
Max Temperature 91 °F 95 °F 103 °F (1981)
Min Temperature 70 °F 70 °F 60 °F (1970)
Cooling Degree Days 16 17  
Month to date cooling degree days 357  
Year to date cooling degree days 1207  
Since 1 June cooling degree days 818  
Growing Degree Days 30 (Base 50)    
Moisture  
Dew Point 63 °F    
Average Humidity 56    
Maximum Humidity 84    
Minimum Humidity 32    
Precipitation  
Precipitation 0.00 in 0.07 in 4.10 in (1961)
Month to date precipitation 1.25  
Year to date precipitation 7.31  
Sea Level Pressure  
Sea Level Pressure 29.99 in    
Wind  
Wind Speed 6 mph (SSE)    
Max Wind Speed 16 mph    
Max Gust Speed 23 mph    
Visibility 10 miles    
Events      
T = Trace of Precipitation, MM = Missing Value Source: NWS Daily Summary

Daily Weather History Graph

Daily Weather History Graph

Search for Another Location

Airport:

Trip Planner

Search our weather history database for the weather conditions in past years. The results will help you decide how hot, cold, wet, or windy it might be!

Date:

Astronomy

Jul. 21, 2013 Rise Set
Actual Time 6:56 AM CDT 8:52 PM CDT
Civil Twilight 6:29 AM CDT 9:19 PM CDT
Nautical Twilight 5:56 AM CDT 9:52 PM CDT
Astronomical Twilight 5:21 AM CDT 10:27 PM CDT
Moon 7:55 PM CDT (7/21) 5:43 AM CDT (7/21)
Length of Visible Light 14h 50m
Length of Day
13h 55m
Waxing Gibbous, 98% of the Moon is Illuminated
Jul 21
Waxing Gibbous
Jul 22
Full
Jul 29
Last Quarter
Aug 6
New
Aug 14
First Quarter

Hourly Weather History & Observations

Time (CDT) Temp. Heat Index Dew Point Humidity Pressure Visibility Wind Dir Wind Speed Gust Speed Precip Events Conditions
12:15 AM 76.6 °F - 62.4 °F 61% 30.02 in 7.0 mi South 5.8 mph - N/A   Clear
12:35 AM 76.3 °F - 63.0 °F 63% 30.01 in 10.0 mi South 6.9 mph - N/A   Clear
12:55 AM 76.1 °F - 63.1 °F 64% 30.00 in 10.0 mi South 4.6 mph - N/A   Clear
1:15 AM 75.6 °F - 63.5 °F 66% 30.00 in 10.0 mi South 4.6 mph - N/A   Clear
1:35 AM 75.2 °F - 63.7 °F 67% 30.00 in 10.0 mi South 6.9 mph - N/A   Clear
1:55 AM 75.0 °F - 63.5 °F 67% 30.00 in 10.0 mi South 6.9 mph - N/A   Clear
2:15 AM 74.5 °F - 63.7 °F 69% 30.00 in 10.0 mi South 6.9 mph - N/A   Clear
2:35 AM 73.8 °F - 63.9 °F 71% 30.00 in 10.0 mi South 5.8 mph - N/A   Clear
2:55 AM 73.6 °F - 64.0 °F 72% 30.00 in 10.0 mi Calm Calm - N/A   Clear
3:15 AM 73.4 °F - 64.4 °F 73% 30.00 in 10.0 mi Calm Calm - N/A   Clear
3:35 AM 73.0 °F - 64.6 °F 75% 30.00 in 10.0 mi Calm Calm - N/A   Clear
3:55 AM 72.5 °F - 64.6 °F 76% 29.99 in 10.0 mi SW 3.5 mph - N/A   Clear
4:15 AM 72.5 °F - 64.9 °F 77% 29.99 in 10.0 mi SSW 3.5 mph - N/A   Clear
4:35 AM 71.6 °F - 64.8 °F 79% 29.99 in 10.0 mi Calm Calm - N/A   Clear
4:55 AM 71.8 °F - 64.8 °F 78% 29.99 in 10.0 mi South 3.5 mph - N/A   Clear
5:15 AM 72.3 °F - 64.4 °F 76% 29.99 in 10.0 mi Calm Calm - N/A   Clear
5:35 AM 72.0 °F - 64.6 °F 77% 30.00 in 10.0 mi Calm Calm - N/A   Clear
5:55 AM 72.0 °F - 64.6 °F 77% 30.00 in 10.0 mi Calm Calm - N/A   Clear
6:15 AM 71.6 °F - 64.6 °F 78% 30.00 in 10.0 mi Calm Calm - N/A   Clear
6:35 AM 71.8 °F - 64.4 °F 77% 30.00 in 10.0 mi Calm Calm - N/A   Clear
6:55 AM 71.4 °F - 64.6 °F 79% 30.01 in 10.0 mi Calm Calm - N/A   Clear
7:15 AM 70.2 °F - 65.1 °F 84% 30.01 in 10.0 mi Calm Calm - N/A   Clear
7:35 AM 71.6 °F - 65.1 °F 80% 30.02 in 10.0 mi Calm Calm - N/A   Clear
7:55 AM 73.4 °F - 64.8 °F 74% 30.02 in 10.0 mi Calm Calm - N/A   Clear
8:15 AM 74.5 °F - 65.3 °F 73% 30.03 in 10.0 mi Calm Calm - N/A   Clear
8:35 AM 75.7 °F - 65.7 °F 71% 30.03 in 10.0 mi SSE 9.2 mph - N/A   Clear
8:55 AM 76.1 °F - 65.8 °F 70% 30.03 in 10.0 mi SSE 9.2 mph - N/A   Clear
9:15 AM 77.0 °F - 65.8 °F 68% 30.03 in 10.0 mi South 9.2 mph - N/A   Clear
9:35 AM 78.3 °F - 65.7 °F 65% 30.03 in 10.0 mi South 6.9 mph - N/A   Clear
9:55 AM 79.2 °F - 65.8 °F 64% 30.03 in 10.0 mi South 9.2 mph - N/A   Clear
10:15 AM 80.2 °F 82.2 °F 65.8 °F 61% 30.03 in 10.0 mi SSE 9.2 mph - N/A   Clear
10:35 AM 81.5 °F 83.4 °F 65.5 °F 58% 30.03 in 10.0 mi SSE 10.4 mph - N/A   Clear
10:55 AM 82.2 °F 83.8 °F 64.6 °F 55% 30.03 in 10.0 mi SSW 11.5 mph 16.1 mph N/A   Clear
11:15 AM 82.9 °F 84.6 °F 64.6 °F 54% 30.02 in 10.0 mi South 9.2 mph - N/A   Clear
11:35 AM 83.7 °F 85.1 °F 64.2 °F 52% 30.02 in 10.0 mi South 11.5 mph 16.1 mph N/A   Clear
11:55 AM 84.9 °F 85.9 °F 63.3 °F 48% 30.02 in 10.0 mi South 12.7 mph 18.4 mph N/A   Clear
12:15 PM 85.5 °F 86.6 °F 63.5 °F 48% 30.01 in 10.0 mi South 5.8 mph 17.3 mph N/A   Clear
12:55 PM 87.8 °F 87.9 °F 61.5 °F 41% 29.99 in 10.0 mi SSE 16.1 mph 23.0 mph N/A   Scattered Clouds
1:15 PM 88.0 °F 87.9 °F 60.8 °F 40% 29.99 in 10.0 mi South 11.5 mph 19.6 mph N/A   Clear
1:35 PM 88.7 °F 88.3 °F 60.3 °F 38% 29.99 in 10.0 mi SSE 10.4 mph 19.6 mph N/A   Clear
1:55 PM 89.2 °F 89.0 °F 60.3 °F 38% 29.98 in 10.0 mi South 13.8 mph 18.4 mph N/A   Scattered Clouds
2:15 PM 89.4 °F 88.7 °F 59.5 °F 36% 29.97 in 10.0 mi SE 10.4 mph 17.3 mph N/A   Scattered Clouds
2:35 PM 90.3 °F 89.6 °F 59.0 °F 35% 29.97 in 10.0 mi SSE 8.1 mph 18.4 mph N/A   Scattered Clouds
2:55 PM 90.5 °F 89.8 °F 59.4 °F 35% 29.96 in 10.0 mi SSE 9.2 mph 19.6 mph N/A   Scattered Clouds
3:15 PM 90.5 °F 89.8 °F 59.0 °F 35% 29.96 in 10.0 mi South 5.8 mph 18.4 mph N/A   Scattered Clouds
3:35 PM 90.9 °F 90.6 °F 60.4 °F 36% 29.96 in 10.0 mi SSE 9.2 mph 16.1 mph N/A   Scattered Clouds
3:55 PM 90.7 °F 90.1 °F 59.9 °F 35% 29.96 in 10.0 mi SE 9.2 mph - N/A   Scattered Clouds
4:15 PM 90.7 °F 90.4 °F 60.1 °F 36% 29.95 in 10.0 mi SSE 10.4 mph 16.1 mph N/A   Scattered Clouds
4:35 PM 91.0 °F 90.5 °F 59.7 °F 35% 29.95 in 10.0 mi South 9.2 mph - N/A   Mostly Cloudy
4:55 PM 89.8 °F 89.4 °F 60.1 °F 37% 29.94 in 10.0 mi SE 9.2 mph 17.3 mph N/A   Scattered Clouds
5:15 PM 91.6 °F 91.0 °F 59.9 °F 34% 29.94 in 10.0 mi SE 10.4 mph 20.7 mph N/A   Scattered Clouds
5:35 PM 90.1 °F 89.3 °F 58.8 °F 35% 29.93 in 10.0 mi ESE 8.1 mph 18.4 mph N/A   Clear
5:55 PM 90.5 °F 89.5 °F 58.8 °F 34% 29.92 in 10.0 mi South 11.5 mph - N/A   Clear
6:15 PM 91.8 °F 90.6 °F 58.3 °F 32% 29.92 in 10.0 mi SSE 10.4 mph - N/A   Clear
6:35 PM 91.2 °F 90.2 °F 58.6 °F 33% 29.92 in 10.0 mi SSE 13.8 mph 18.4 mph N/A   Clear
6:55 PM 89.6 °F 90.1 °F 62.2 °F 40% 29.92 in 10.0 mi SE 13.8 mph - N/A   Clear
7:15 PM 89.1 °F 89.6 °F 62.6 °F 41% 29.92 in 10.0 mi SSE 13.8 mph 17.3 mph N/A   Clear
7:35 PM 88.3 °F 88.6 °F 62.1 °F 41% 29.93 in 10.0 mi SSE 11.5 mph - N/A   Clear
7:55 PM 88.0 °F 88.1 °F 61.7 °F 41% 29.93 in 10.0 mi SSE 11.5 mph - N/A   Clear
8:15 PM 87.3 °F 88.0 °F 62.6 °F 44% 29.93 in 10.0 mi SSE 11.5 mph - N/A   Clear
8:35 PM 86.5 °F 87.6 °F 63.5 °F 46% 29.94 in 10.0 mi SE 10.4 mph - N/A   Clear
8:55 PM 86.2 °F 87.1 °F 63.0 °F 46% 29.95 in 10.0 mi SSE 12.7 mph - N/A   Clear
9:15 PM 85.5 °F 86.6 °F 63.5 °F 48% 29.96 in 10.0 mi SE 11.5 mph 17.3 mph N/A   Clear
9:35 PM 84.7 °F 85.9 °F 63.9 °F 49% 29.96 in 10.0 mi SSE 13.8 mph - N/A   Clear
9:55 PM 83.8 °F 85.1 °F 63.7 °F 51% 29.97 in 10.0 mi SSE 13.8 mph 19.6 mph N/A   Clear
10:15 PM 83.1 °F 84.4 °F 63.7 °F 52% 29.98 in 10.0 mi South 13.8 mph - N/A   Clear
10:35 PM 82.2 °F 83.5 °F 63.7 °F 53% 29.99 in 10.0 mi South 10.4 mph - N/A   Clear
10:55 PM 81.5 °F 82.9 °F 64.0 °F 55% 30.00 in 10.0 mi South 10.4 mph - N/A   Clear
11:15 PM 80.8 °F 82.4 °F 64.4 °F 57% 30.01 in 10.0 mi South 11.5 mph 16.1 mph N/A   Clear
11:35 PM 80.1 °F 81.8 °F 64.4 °F 59% 30.01 in 10.0 mi South 10.4 mph - N/A   Clear
11:55 PM 79.7 °F - 64.4 °F 59% 30.01 in 10.0 mi South 9.2 mph - N/A   Clear